T 2007 July 30.9320 TT MPC q 2.774731 (2000.0) P Q n 0.1201318 Peri. 278.5245 +0.9480005 -0.3154228 a 4.067842 Node 99.8701 +0.3063322 +0.8680843 e 0.317886 Incl. 2.4706 +0.0863467 +0.3833251 P 8.20 From 59 observations 2007 Oct. 14-Dec. 8.
m1 = 13.5 + 5 log d + 10.0 log r